TimeAKST,TemperatureF,Dew PointF,Humidity,Sea Level PressureIn,VisibilityMPH,Wind Direction,Wind SpeedMPH,Gust SpeedMPH,PrecipitationIn,Events,Conditions,WindDirDegrees,DateUTC
4:16 AM,8.6,-4.0,57,30.06,10.0,ENE,11.5,-,N/A,,Clear,60,2012-11-17 13:16:00
4:36 AM,10.4,-5.8,48,30.06,10.0,East,4.6,-,N/A,,Clear,80,2012-11-17 13:36:00
4:56 AM,8.6,-9.4,44,30.05,10.0,ENE,6.9,-,N/A,,Clear,60,2012-11-17 13:56:00
5:16 AM,8.6,-5.8,52,30.04,10.0,NE,17.3,25.3,N/A,,Clear,40,2012-11-17 14:16:00
5:36 AM,8.6,-7.6,48,30.04,10.0,NE,20.7,27.6,N/A,,Clear,40,2012-11-17 14:36:00
5:56 AM,8.6,-5.8,52,30.05,10.0,NNE,11.5,20.7,N/A,,Clear,30,2012-11-17 14:56:00
6:16 AM,8.6,-7.6,48,30.04,10.0,NNE,9.2,20.7,N/A,,Clear,20,2012-11-17 15:16:00
6:36 AM,8.6,-7.6,48,30.05,10.0,NNE,13.8,21.9,N/A,,Clear,30,2012-11-17 15:36:00
6:56 AM,8.6,-7.6,48,30.04,10.0,Calm,Calm,-,N/A,,Clear,0,2012-11-17 15:56:00
7:16 AM,8.6,-7.6,48,30.04,10.0,NE,9.2,21.9,N/A,,Clear,40,2012-11-17 16:16:00
7:56 AM,8.6,-5.8,52,30.02,10.0,NE,20.7,26.5,N/A,,Clear,40,2012-11-17 16:56:00
8:16 AM,8.6,-7.6,48,29.99,10.0,NE,26.5,32.2,N/A,,Clear,50,2012-11-17 17:16:00
8:36 AM,8.6,-7.6,48,29.99,10.0,NE,24.2,32.2,N/A,,Clear,50,2012-11-17 17:36:00
8:56 AM,8.6,-7.6,48,29.97,10.0,NE,28.8,38.0,N/A,,Clear,50,2012-11-17 17:56:00
9:16 AM,8.6,-7.6,48,29.97,10.0,NE,31.1,38.0,N/A,,Clear,50,2012-11-17 18:16:00
9:36 AM,10.4,-7.6,44,29.97,10.0,NE,29.9,38.0,N/A,,Clear,50,2012-11-17 18:36:00
9:56 AM,10.4,-9.4,41,29.99,10.0,NNE,20.7,34.5,N/A,,Clear,30,2012-11-17 18:56:00
10:16 AM,10.4,-7.6,44,29.99,10.0,NE,21.9,32.2,N/A,,Clear,40,2012-11-17 19:16:00
10:36 AM,8.6,-9.4,44,29.99,10.0,NNE,18.4,31.1,N/A,,Clear,30,2012-11-17 19:36:00
10:56 AM,8.6,-7.6,48,29.99,10.0,NNE,16.1,24.2,N/A,,Clear,20,2012-11-17 19:56:00
11:16 AM,8.6,-7.6,48,30.00,10.0,NNE,11.5,-,N/A,,Clear,30,2012-11-17 20:16:00
11:36 AM,8.6,-7.6,48,29.99,10.0,NNE,6.9,16.1,N/A,,Clear,20,2012-11-17 20:36:00
11:56 AM,10.4,-7.6,44,29.99,10.0,NNE,12.7,20.7,N/A,,Clear,30,2012-11-17 20:56:00
12:16 PM,10.4,-7.6,44,29.99,10.0,NNE,12.7,20.7,N/A,,Clear,30,2012-11-17 21:16:00
12:36 PM,10.4,-7.6,44,29.98,10.0,NNE,13.8,19.6,N/A,,Clear,30,2012-11-17 21:36:00
12:56 PM,12.2,-7.6,41,29.97,10.0,NE,13.8,23.0,N/A,,Clear,40,2012-11-17 21:56:00
1:16 PM,12.2,-7.6,41,29.96,10.0,NE,16.1,24.2,N/A,,Clear,50,2012-11-17 22:16:00
1:36 PM,12.2,-7.6,41,29.95,10.0,NNE,16.1,23.0,N/A,,Clear,30,2012-11-17 22:36:00
1:56 PM,12.2,-7.6,41,29.95,10.0,NNE,16.1,23.0,N/A,,Clear,30,2012-11-17 22:56:00
2:16 PM,14.0,-7.6,38,29.94,10.0,NE,16.1,33.4,N/A,,Clear,40,2012-11-17 23:16:00
2:36 PM,14.0,-7.6,38,29.94,10.0,NNE,9.2,20.7,N/A,,Clear,30,2012-11-17 23:36:00
2:56 PM,14.0,-7.6,38,29.93,10.0,NE,16.1,26.5,N/A,,Clear,40,2012-11-17 23:56:00
3:16 PM,15.8,-7.6,35,29.92,10.0,NE,21.9,29.9,N/A,,Clear,40,2012-11-18 00:16:00
3:36 PM,15.8,-9.4,32,29.91,10.0,NE,20.7,31.1,N/A,,Clear,40,2012-11-18 00:36:00
3:56 PM,15.8,-7.6,35,29.92,10.0,NNE,18.4,26.5,N/A,,Clear,30,2012-11-18 00:56:00
4:16 PM,12.2,-9.4,38,29.93,9.0,North,15.0,20.7,N/A,,Clear,360,2012-11-18 01:16:00
4:36 PM,10.4,-7.6,44,29.93,10.0,North,11.5,-,N/A,,Clear,350,2012-11-18 01:36:00
4:56 PM,10.4,-5.8,48,29.92,8.0,North,12.7,-,N/A,,Clear,360,2012-11-18 01:56:00
5:16 PM,10.4,-5.8,48,29.92,10.0,NNW,9.2,-,N/A,,Clear,340,2012-11-18 02:16:00
5:56 PM,10.4,-4.0,52,29.92,-9999.0,NNW,13.8,-,N/A,,Unknown,340,2012-11-18 02:56:00
6:16 PM,10.4,-4.0,52,29.92,10.0,NNW,15.0,18.4,N/A,,Clear,340,2012-11-18 03:16:00
6:36 PM,10.4,-5.8,48,29.92,10.0,NNW,15.0,-,N/A,,Clear,330,2012-11-18 03:36:00
7:16 PM,10.4,-5.8,48,29.91,10.0,NW,16.1,-,N/A,,Clear,320,2012-11-18 04:16:00
7:36 PM,8.6,-5.8,52,29.91,10.0,North,18.4,24.2,N/A,,Clear,350,2012-11-18 04:36:00
7:56 PM,10.4,-4.0,52,29.92,10.0,North,13.8,19.6,N/A,,Clear,350,2012-11-18 04:56:00
8:16 PM,8.6,-5.8,52,29.90,10.0,North,15.0,21.9,N/A,,Clear,350,2012-11-18 05:16:00
8:36 PM,10.4,-5.8,48,29.90,10.0,North,15.0,26.5,N/A,,Clear,360,2012-11-18 05:36:00
8:56 PM,10.4,-5.8,48,29.90,10.0,North,18.4,26.5,N/A,,Clear,360,2012-11-18 05:56:00
9:16 PM,8.6,-5.8,52,29.89,10.0,North,13.8,17.3,N/A,,Clear,360,2012-11-18 06:16:00
9:36 PM,10.4,-5.8,48,29.90,10.0,North,11.5,20.7,N/A,,Clear,360,2012-11-18 06:36:00
9:56 PM,10.4,-5.8,48,29.91,10.0,NW,8.1,-,N/A,,Clear,320,2012-11-18 06:56:00
10:16 PM,10.4,-2.2,57,29.90,10.0,North,11.5,-,N/A,,Clear,350,2012-11-18 07:16:00
10:36 PM,10.4,-7.6,44,29.90,10.0,North,13.8,-,N/A,,Clear,350,2012-11-18 07:36:00
10:56 PM,8.6,-5.8,52,29.90,10.0,North,13.8,-,N/A,,Clear,360,2012-11-18 07:56:00
11:16 PM,10.4,-5.8,48,29.89,10.0,North,15.0,-,N/A,,Clear,350,2012-11-18 08:16:00
11:36 PM,10.4,-5.8,48,29.89,10.0,North,12.7,-,N/A,,Clear,360,2012-11-18 08:36:00
11:56 PM,10.4,-5.8,48,29.89,10.0,North,15.0,20.7,N/A,,Clear,360,2012-11-18 08:56:00